| time (UTC) | temp C | wind direction | speed KPH | gust KPH | rain 1hr cm | rain 24hr cm | rain mn cm | humidity % | barometer mb |
| 20260504141024 | 25 | 336 | 1.6 | 3.2 | 0.00 | 0.00 | 0.00 | 30 | 1016.6 |
| 20260504081023 | 20 | 164 | 1.6 | 3.2 | 0.00 | 0.00 | 0.00 | 38 | 1021.2 |
| 20260504050018 | 14 | 252 | 1.6 | 3.2 | 0.00 | 0.00 | 0.00 | 48 | 1019.6 |
| 20260504044021 | 14 | 192 | 0.0 | 3.2 | 0.00 | 0.00 | 0.00 | 50 | 1019.4 |
| 20260504043041 | 13 | 258 | 1.6 | 3.2 | 0.00 | 0.00 | 0.00 | 51 | 1019.3 |
| 20260504042042 | 13 | 248 | 1.6 | 3.2 | 0.00 | 0.00 | 0.00 | 52 | 1019.3 |
| 20260504041042 | 13 | 245 | 1.6 | 3.2 | 0.00 | 0.00 | 0.00 | 53 | 1019.6 |
| 20260504040023 | 13 | 220 | 1.6 | 1.6 | 0.00 | 0.00 | 0.00 | 53 | 1019.6 |
| 20260504035104 | 13 | 216 | 3.2 | 3.2 | 0.00 | 0.00 | 0.00 | 54 | 1019.7 |
| 20260504034023 | 13 | 221 | 3.2 | 4.8 | 0.00 | 0.00 | 0.00 | 55 | 1019.7 |
| 20260504033023 | 14 | 218 | 3.2 | 4.8 | 0.00 | 0.00 | 0.00 | 55 | 1020.5 |
| 20260504032024 | 14 | 221 | 1.6 | 3.2 | 0.00 | 0.00 | 0.00 | 56 | 1020.5 |
| 20260504031024 | 14 | 229 | 1.6 | 3.2 | 0.00 | 0.00 | 0.00 | 55 | 1020.8 |
| 20260504030025 | 14 | 220 | 3.2 | 3.2 | 0.00 | 0.00 | 0.00 | 56 | 1020.8 |
| 20260504025025 | 14 | 214 | 0.0 | 3.2 | 0.00 | 0.00 | 0.00 | 53 | 1020.6 |
| 20260504024015 | 15 | 0.0 | 0.0 | 0.00 | 0.00 | 0.00 | 52 | 1020.7 | |
| 20260504023016 | 15 | 0.0 | 0.0 | 0.00 | 0.00 | 0.00 | 51 | 1020.9 | |
| 20260504022015 | 15 | 158 | 1.6 | 1.6 | 0.00 | 0.00 | 0.00 | 52 | 1020.8 |
| 20260504021016 | 15 | 169 | 1.6 | 3.2 | 0.00 | 0.00 | 0.00 | 52 | 1020.6 |
| 20260504020017 | 15 | 359 | 1.6 | 3.2 | 0.00 | 0.00 | 0.00 | 50 | 1020.6 |
| 20260504015018 | 15 | 82 | 0.0 | 4.8 | 0.00 | 0.00 | 0.00 | 49 | 1020.4 |
| 20260504014018 | 15 | 248 | 0.0 | 0.0 | 0.00 | 0.00 | 0.00 | 46 | 1020.4 |
| 20260504013019 | 16 | 240 | 0.0 | 3.2 | 0.00 | 0.00 | 0.00 | 45 | 1020.8 |
| 20260504012019 | 16 | 224 | 3.2 | 4.8 | 0.00 | 0.00 | 0.00 | 42 | 1020.8 |
| 20260504011019 | 16 | 257 | 4.8 | 6.4 | 0.00 | 0.00 | 0.00 | 41 | 1020.8 |
| 20260504010020 | 16 | 294 | 4.8 | 8.0 | 0.00 | 0.00 | 0.00 | 37 | 1020.8 |
| 20260504005020 | 16 | 270 | 4.8 | 6.4 | 0.00 | 0.00 | 0.00 | 37 | 1020.4 |
| 20260504004019 | 17 | 297 | 6.4 | 8.0 | 0.00 | 0.00 | 0.00 | 37 | 1020.4 |
| 20260504003021 | 17 | 278 | 6.4 | 9.7 | 0.00 | 0.00 | 0.00 | 36 | 1020.4 |
| 20260504002021 | 17 | 273 | 6.4 | 9.7 | 0.00 | 0.00 | 0.00 | 34 | 1020.3 |
| 20260504001022 | 17 | 240 | 4.8 | 9.7 | 0.00 | 0.00 | 0.00 | 34 | 1020.1 |
| 20260504000022 | 17 | 270 | 4.8 | 8.0 | 0.00 | 0.00 | 0.00 | 35 | 1020.1 |
| 20260503235103 | 17 | 284 | 4.8 | 11.3 | 0.00 | 0.00 | 0.00 | 35 | 1019.8 |
| 20260503234023 | 17 | 262 | 6.4 | 8.0 | 0.00 | 0.00 | 0.00 | 35 | 1019.8 |
| 20260503233023 | 18 | 279 | 4.8 | 6.4 | 0.00 | 0.00 | 0.00 | 36 | 1019.7 |
| 20260503232023 | 18 | 270 | 4.8 | 11.3 | 0.00 | 0.00 | 0.00 | 37 | 1019.6 |
| 20260503231144 | 18 | 293 | 4.8 | 9.7 | 0.00 | 0.00 | 0.00 | 38 | 1019.8 |
| 20260503230024 | 18 | 282 | 6.4 | 9.7 | 0.00 | 0.00 | 0.00 | 39 | 1019.8 |
| 20260503225024 | 18 | 252 | 6.4 | 12.9 | 0.00 | 0.00 | 0.00 | 39 | 1019.5 |
| 20260503224024 | 18 | 230 | 6.4 | 12.9 | 0.00 | 0.00 | 0.00 | 39 | 1019.6 |
| 20260503223023 | 18 | 261 | 4.8 | 8.0 | 0.00 | 0.00 | 0.00 | 38 | 1019.3 |
| 20260503222025 | 19 | 263 | 3.2 | 9.7 | 0.00 | 0.00 | 0.00 | 38 | 1019.2 |
| 20260503221024 | 19 | 248 | 3.2 | 6.4 | 0.00 | 0.00 | 0.00 | 37 | 1018.9 |
| 20260503220024 | 19 | 262 | 1.6 | 8.0 | 0.00 | 0.00 | 0.00 | 37 | 1018.9 |
| 20260503215024 | 20 | 331 | 1.6 | 1.6 | 0.00 | 0.00 | 0.00 | 37 | 1018.7 |
| 20260503214023 | 20 | 293 | 1.6 | 9.7 | 0.00 | 0.00 | 0.00 | 37 | 1018.7 |
| 20260503213023 | 20 | 344 | 1.6 | 4.8 | 0.00 | 0.00 | 0.00 | 37 | 1018.7 |
| 20260503212044 | 20 | 342 | 1.6 | 3.2 | 0.00 | 0.00 | 0.00 | 37 | 1018.6 |
| 20260503211023 | 20 | 283 | 1.6 | 4.8 | 0.00 | 0.00 | 0.00 | 36 | 1018.2 |
| 20260503210025 | 20 | 291 | 1.6 | 3.2 | 0.00 | 0.00 | 0.00 | 36 | 1018.2 |
| 20260503205025 | 20 | 298 | 1.6 | 3.2 | 0.00 | 0.00 | 0.00 | 36 | 1018.2 |
| 20260503204025 | 20 | 207 | 3.2 | 4.8 | 0.00 | 0.00 | 0.00 | 36 | 1018.3 |
| 20260503203025 | 20 | 255 | 1.6 | 6.4 | 0.00 | 0.00 | 0.00 | 35 | 1017.8 |
| 20260503202045 | 20 | 94 | 0.0 | 1.6 | 0.00 | 0.00 | 0.00 | 35 | 1017.8 |
| 20260503201023 | 20 | 301 | 1.6 | 3.2 | 0.00 | 0.00 | 0.00 | 35 | 1017.0 |
| 20260503200023 | 20 | 346 | 6.4 | 6.4 | 0.00 | 0.00 | 0.00 | 35 | 1017.0 |
| 20260503195024 | 20 | 270 | 6.4 | 12.9 | 0.00 | 0.00 | 0.00 | 34 | 1016.6 |
| 20260503194024 | 20 | 284 | 3.2 | 8.0 | 0.00 | 0.00 | 0.00 | 34 | 1016.6 |
| 20260503193024 | 21 | 357 | 1.6 | 3.2 | 0.00 | 0.00 | 0.00 | 34 | 1016.5 |
| 20260503192025 | 21 | 295 | 3.2 | 14.5 | 0.00 | 0.00 | 0.00 | 34 | 1016.4 |
| 20260503191024 | 21 | 289 | 1.6 | 4.8 | 0.00 | 0.00 | 0.00 | 33 | 1016.6 |
| 20260503190024 | 21 | 324 | 1.6 | 4.8 | 0.00 | 0.00 | 0.00 | 32 | 1016.6 |
| 20260503185024 | 21 | 273 | 3.2 | 6.4 | 0.00 | 0.00 | 0.00 | 31 | 1016.3 |
| 20260503184024 | 22 | 51 | 1.6 | 3.2 | 0.00 | 0.00 | 0.00 | 30 | 1016.4 |
| 20260503183024 | 22 | 264 | 3.2 | 3.2 | 0.00 | 0.00 | 0.00 | 30 | 1016.2 |
| 20260503182045 | 22 | 279 | 4.8 | 8.0 | 0.00 | 0.00 | 0.00 | 29 | 1016.2 |
| 20260503181025 | 23 | 293 | 6.4 | 6.4 | 0.00 | 0.00 | 0.00 | 28 | 1016.2 |
| 20260503180025 | 23 | 261 | 4.8 | 9.7 | 0.00 | 0.00 | 0.00 | 27 | 1016.2 |
| 20260503175024 | 23 | 315 | 4.8 | 8.0 | 0.00 | 0.00 | 0.00 | 27 | 1016.1 |
| 20260503174025 | 24 | 259 | 3.2 | 9.7 | 0.00 | 0.00 | 0.00 | 27 | 1016.2 |
| 20260503173015 | 24 | 302 | 4.8 | 8.0 | 0.00 | 0.08 | 0.00 | 27 | 1016.3 |
| 20260503172045 | 25 | 298 | 4.8 | 8.0 | 0.00 | 0.15 | 0.00 | 28 | 1016.0 |
| 20260503171025 | 25 | 304 | 6.4 | 8.0 | 0.00 | 0.20 | 0.00 | 28 | 1016.0 |